• Join FlightAware (Why Join?)
  • Login
  • US Flag 
11:52AM EDT


 

Airport Tracker/Info


-or-


 

Live Flight TrackerFlight Track Log ✈ N818GM ✈ 02-Jul-2014 ✈ KAPF - KTLH

Flight Track Log - Related Links

Times and Time Zones

All times are in EDT time to prevent confusion due to time zone crossing. See the N818GM flight status page for this flight to view local times or setup timezone preferences in your user account.

Time Position Orientation Groundspeed Altitude Reporting Facility
EDT Latitude Longitude Course Direction KTS MPH feet Rate Location/Type
07:33AM 26.2181 -81.7072 North 163 188 2,000  Level Miami Center
07:34AM 26.2533 -81.7200 342° North 137 158 2,800 840 Climbing Miami Center
07:35AM 26.2933 -81.7272 351° North 138 159 3,800 780 Climbing Miami Center
07:36AM 26.3306 -81.7333 352° North 135 155 4,500 660 Climbing Miami Center
07:37AM 26.3995 -81.8000 North  Level FlightAware Approximate
07:37AM 26.3667 -81.7397 351° North 135 155 5,200  Level Miami Center
07:38AM 26.4414 -81.8000 North  Level FlightAware Approximate
07:38AM 26.4064 -81.7464 351° North 135 155 6,000  Level Miami Center
07:39AM 26.4433 -81.7531 351° North 135 155 6,700 600 Climbing Miami Center
07:40AM 26.4800 -81.7586 352° North 135 155 7,300 600 Climbing Miami Center
07:41AM 26.5156 -81.7650 351° North 133 153 8,000 300 Climbing Miami Center
07:42AM 26.5567 -81.7725 351° North 149 171 8,000  Level Miami Center
07:43AM 26.6083 -81.7814 351° North 166 191 8,000 -60 Level Miami Center
07:44AM 26.6556 -81.7892 352° North 170 196 7,900  Descending Miami Center
07:45AM 26.7011 -81.7975 351° North 170 196 8,000  Climbing Miami Center
07:46AM 26.7511 -81.8069 350° North 171 197 8,000  Level Miami Center
07:47AM 26.7964 -81.8161 350° North 168 193 8,000  Level Miami Center
07:48AM 26.8425 -81.8222 353° North 169 194 8,000  Level Miami Center
07:49AM 26.8917 -81.8300 352° North 165 190 8,000  Level Miami Center
07:50AM 26.9367 -81.8392 350° North 166 191 8,000  Level Miami Center
07:51AM 26.9814 -81.8469 351° North 165 190 8,000  Level Miami Center
07:52AM 27.0281 -81.8525 354° North 167 192 8,000  Level Miami Center
07:53AM 27.0736 -81.8614 350° North 167 192 8,000  Level Miami Center
07:54AM 27.1186 -81.8708 349° North 166 191 8,000  Level Miami Center
07:55AM 27.1622 -81.8767 353° North 162 186 8,000  Level Miami Center
07:56AM 27.2075 -81.8844 351° North 162 186 8,000  Level Miami Center
07:57AM 27.2528 -81.8917 352° North 162 186 8,000  Level Miami Center
07:58AM 27.2969 -81.9014 349° North 163 188 8,000  Level Miami Center
07:59AM 27.3419 -81.9075 353° North 163 188 8,000  Level Miami Center
08:00AM 27.3947 -81.9172 351° North 162 186 8,000  Level Miami Center
08:01AM 27.4392 -81.9258 350° North 162 186 8,000  Level Miami Center
08:02AM 27.4836 -81.9333 351° North 162 186 8,000  Level Miami Center
08:03AM 27.5286 -81.9403 352° North 162 186 8,000  Level Miami Center
08:04AM 27.5731 -81.9489 350° North 162 186 8,000  Level Miami Center
08:05AM 27.6169 -81.9547 353° North 162 186 8,000  Level Miami Center
08:06AM 27.6611 -81.9617 352° North 162 186 8,000  Level Miami Center
08:07AM 27.7036 -81.9706 350° North 162 186 8,000  Level Miami Center
08:08AM 27.7553 -81.9794 351° North 161 185 8,000  Level Miami Center
08:09AM 27.7983 -81.9872 351° North 161 185 8,000  Level Miami Center
08:10AM 27.8425 -81.9964 350° North 161 185 8,000  Level Miami Center
08:11AM 27.8853 -82.0022 353° North 159 183 8,000  Level Miami Center
08:12AM 27.9289 -82.0092 352° North 158 182 8,000  Level Miami Center
08:13AM 27.9711 -82.0181 349° North 158 182 8,000  Level Miami Center
08:14AM 28.0000 -82.0333 335° Northwest 157 181 8,000  Level Tampa TRACON
08:15AM 28.0333 -82.0500 336° Northwest 160 184 8,000  Level Tampa TRACON
08:16AM 28.0667 -82.0667 336° Northwest 155 178 8,000  Level Tampa TRACON
08:17AM 28.1167 -82.1000 330° Northwest 153 176 8,000  Level Tampa TRACON
08:18AM 28.1500 -82.1167 336° Northwest 154 177 8,000  Level Tampa TRACON
08:19AM 28.1833 -82.1500 319° Northwest 155 178 8,000  Level Tampa TRACON
08:20AM 28.2167 -82.1667 336° Northwest 156 180 8,000  Level Tampa TRACON
08:21AM 28.2667 -82.2000 330° Northwest 157 181 8,000  Level Tampa TRACON
08:22AM 28.3000 -82.2167 336° Northwest 156 180 8,000  Level Tampa TRACON
08:23AM 28.3333 -82.2333 336° Northwest 155 178 8,000  Level Tampa TRACON
08:24AM 28.3667 -82.2667 319° Northwest 154 177 8,000  Level Tampa TRACON
08:25AM 28.4000 -82.2833 336° Northwest 156 180 8,000  Level Tampa TRACON
08:26AM 28.4500 -82.3167 330° Northwest 155 178 8,000  Level Tampa TRACON
08:27AM 28.4833 -82.3333 336° Northwest 152 175 8,000  Level Tampa TRACON
08:29AM 28.5528 -82.3769 331° Northwest 154 177 8,000  Level Miami Center
08:29AM 28.5747 -82.3914 330° Northwest 154 177 8,000  Level Jacksonville Center
08:30AM 28.6122 -82.4172 329° Northwest 156 180 8,000  Level Jacksonville Center
08:31AM 28.6500 -82.4408 331° Northwest 157 181 8,000  Level Jacksonville Center
08:32AM 28.6875 -82.4619 334° Northwest 155 178 8,000  Level Jacksonville Center
08:33AM 28.7294 -82.4900 330° Northwest 156 180 8,000  Level Jacksonville Center
08:34AM 28.7589 -82.5231 315° West 161 185 8,000  Level Jacksonville Center
08:35AM 28.7775 -82.5372 326° Northwest 159 183 8,000  Level Jacksonville Center
08:35AM 28.7922 -82.5561 312° West 161 185 8,000  Level Jacksonville Center
08:36AM 28.8089 -82.5728 319° Northwest 159 183 8,000  Level Jacksonville Center
08:37AM 28.8403 -82.6081 315° West 170 196 8,000  Level Jacksonville Center
08:38AM 28.8717 -82.6461 313° West 170 196 8,000  Level Jacksonville Center
08:39AM 28.9031 -82.6792 317° Northwest 165 190 8,000  Level Jacksonville Center
08:40AM 28.9325 -82.7169 312° West 165 190 8,000  Level Jacksonville Center
08:41AM 28.9639 -82.7525 315° West 165 190 8,000  Level Jacksonville Center
08:42AM 28.9950 -82.7906 313° West 160 184 8,000  Level Jacksonville Center
08:43AM 29.0264 -82.8261 315° West 160 184 8,000  Level Jacksonville Center
08:44AM 29.0597 -82.8617 317° Northwest 160 184 8,000  Level Jacksonville Center
08:45AM 29.0911 -82.8997 313° West 160 184 8,000  Level Jacksonville Center
08:46AM 29.1244 -82.9378 315° West 160 184 8,000  Level Jacksonville Center
08:47AM 29.1581 -82.9733 317° Northwest 160 184 8,000  Level Jacksonville Center
08:48AM 29.1892 -83.0067 317° Northwest 160 184 8,000  Level Jacksonville Center
08:49AM 29.2225 -83.0447 315° West 165 190 8,000  Level Jacksonville Center
08:50AM 29.2558 -83.0806 317° Northwest 165 190 8,000  Level Jacksonville Center
08:51AM 29.2892 -83.1189 315° West 165 190 8,000  Level Jacksonville Center
08:52AM 29.3164 -83.1497 315° West 165 190 8,000  Level Jacksonville Center
08:53AM 29.3539 -83.1881 318° Northwest 165 190 8,000  Level Jacksonville Center
08:54AM 29.3872 -83.2261 315° West 170 196 8,000  Level Jacksonville Center
08:55AM 29.4206 -83.2644 315° West 170 196 8,000  Level Jacksonville Center
08:56AM 29.4558 -83.3028 317° Northwest 170 196 8,000  Level Jacksonville Center
08:57AM 29.4892 -83.3386 317° Northwest 170 196 8,000  Level Jacksonville Center
08:58AM 29.5225 -83.3769 315° West 170 196 8,000  Level Jacksonville Center
08:59AM 29.5578 -83.4131 318° Northwest 170 196 8,000  Level Jacksonville Center
09:00AM 29.5908 -83.4514 315° West 170 196 8,000  Level Jacksonville Center
09:01AM 29.6242 -83.4875 317° Northwest 170 196 8,000  Level Jacksonville Center
09:02AM 29.6575 -83.5236 317° Northwest 170 196 8,000  Level Jacksonville Center
09:03AM 29.6906 -83.5619 315° West 170 196 8,000  Level Jacksonville Center
09:04AM 29.7239 -83.6006 315° West 170 196 8,000  Level Jacksonville Center
09:05AM 29.7592 -83.6367 318° Northwest 170 196 8,000  Level Jacksonville Center
09:06AM 29.7922 -83.6753 315° West 170 196 8,000  Level Jacksonville Center
09:07AM 29.8256 -83.7114 317° Northwest 170 196 8,000  Level Jacksonville Center
09:08AM 29.8606 -83.7500 316° Northwest 170 196 8,000  Level Jacksonville Center
09:09AM 29.8939 -83.7861 317° Northwest 170 196 8,000  Level Jacksonville Center
09:10AM 29.9250 -83.8247 313° West 170 196 8,000  Level Jacksonville Center
09:11AM 29.9581 -83.8611 316° Northwest 170 196 8,000 -240 Level Jacksonville Center
09:12AM 29.9975 -83.8975 321° Northwest 170 196 7,600 -540 Descending Jacksonville Center
09:13AM 30.0283 -83.9386 311° West 170 196 7,000 -600 Descending Jacksonville Center
09:14AM 30.0656 -83.9797 316° Northwest 170 196 6,400 -660 Descending Jacksonville Center
09:15AM 30.1008 -84.0211 315° West 175 201 5,700 -720 Descending Jacksonville Center
09:17AM 30.1589 -84.0766 320° Northwest  Level FlightAware Approximate
09:24AM 30.3675 -84.3288 311° West  Level FlightAware Approximate
09:25AM 30.3833 -84.3500 311° West  Level FlightAware Approximate
09:26AM 30.3967 -84.3509 North  Level Estimated
09:27AM 30.3967 -84.3509 311° West  Level Estimated
09:28AM 30.3967 -84.3509 177° South  Level Estimated
09:29AM 30.3967 -84.3509 311° West  Level Estimated
09:30AM 30.3967 -84.3509 177° South  Level Estimated
09:31AM 30.3967 -84.3509 311° West  Level Estimated
09:32AM 30.3967 -84.3509 177° South  Level Estimated
09:33AM 30.3967 -84.3509 311° West  Level Estimated
09:34AM 30.3967 -84.3509 177° South  Level Estimated
09:35AM 30.3967 -84.3509 311° West  Level Estimated